FW7128 Weather Reports


time (UTC)temp
C
wind
direction
speed
KPH
gust
KPH
rain 1hr
cm
rain 24hr
cm
rain mn
cm
humidity
%
barometer
mb
20210723162452 30 180 12.9 14.5 0.00 0.00 0.00 65 1019.0
20210723161951 30 160 4.8 17.7 0.00 0.00 0.00 64 1019.0
20210723161450 30 194 14.5 27.4 0.00 0.00 0.00 65 1018.8
20210723160950 30 197 14.5 43.5 0.00 0.00 0.00 66 1019.0
20210723160447 30 163 8.0 14.5 0.00 0.00 0.00 65 1019.0
20210723155947 30 253 4.8 24.1 0.00 0.00 0.00 66 1019.1
20210723155444 30 160 8.0 20.9 0.00 0.00 0.00 66 1019.0
20210723154943 30 117 17.7 29.0 0.00 0.00 0.00 66 1019.1
20210723154441 29 163 8.0 14.5 0.00 0.00 0.00 67 1019.1
20210723153937 28 146 22.5 32.2 0.00 0.00 0.00 68 1019.1
20210723153435 28 198 14.5 19.3 0.00 0.00 0.00 68 1019.1
20210723152934 28 181 24.1 24.1 0.00 0.00 0.00 68 1019.2
20210723152433 28 194 14.5 30.6 0.00 0.00 0.00 68 1019.1
20210723151932 28 176 0.0 12.9 0.00 0.00 0.00 70 1019.1
20210723151429 28 297 6.4 24.1 0.00 0.00 0.00 70 1019.2
20210723150927 28 162 8.0 32.2 0.00 0.00 0.00 71 1019.5
20210723150427 28 173 3.2 14.5 0.00 0.00 0.00 70 1019.2
20210723145927 27 168 0.0 14.5 0.00 0.00 0.00 71 1019.2
20210723145425 27 187 8.0 27.4 0.00 0.00 0.00 72 1019.2
20210723144924 27 147 14.5 19.3 0.00 0.00 0.00 72 1019.4
20210723144423 27 165 9.7 22.5 0.00 0.00 0.00 73 1019.1
20210723143922 27 182 12.9 27.4 0.00 0.00 0.00 73 1019.2
20210723143420 27 154 11.3 25.7 0.00 0.00 0.00 74 1019.1
20210723142917 26 56 8.0 27.4 0.00 0.00 0.00 74 1019.2
20210723142417 26 180 12.9 25.7 0.00 0.00 0.00 74 1019.2
20210723141915 26 194 3.2 14.5 0.00 0.00 0.00 74 1019.3
20210723141414 26 123 0.0 19.3 0.00 0.00 0.00 75 1019.2
20210723140912 25 141 11.3 27.4 0.00 0.00 0.00 76 1019.4
20210723140409 26 194 3.2 12.9 0.00 0.00 0.00 76 1019.1
20210723135908 25 216 35.4 35.4 0.00 0.00 0.00 76 1019.1
20210723135407 25 220 16.1 20.9 0.00 0.00 0.00 77 1019.1
20210723134905 25 162 8.0 19.3 0.00 0.00 0.00 77 1019.1
20210723134404 25 167 8.0 20.9 0.00 0.00 0.00 77 1019.3
20210723133903 25 168 8.0 25.7 0.00 0.00 0.00 77 1019.2
20210723133401 25 129 8.0 17.7 0.00 0.00 0.00 78 1019.1
20210723132901 25 82 3.2 32.2 0.00 0.00 0.00 78 1019.2
20210723132359 25 147 14.5 16.1 0.00 0.00 0.00 78 1019.3
20210723131858 25 49 4.8 20.9 0.00 0.00 0.00 79 1019.1
20210723131356 24 170 11.3 24.1 0.00 0.00 0.00 80 1019.1
20210723130855 24 154 6.4 16.1 0.00 0.00 0.00 80 1019.1
20210723130354 24 107 4.8 17.7 0.00 0.00 0.00 81 1018.8
20210723125853 23 117 0.0 14.5 0.00 0.00 0.00 81 1018.8
20210723125350 23 82 3.2 22.5 0.00 0.00 0.00 81 1018.5
20210723124849 23 100 14.5 17.7 0.00 0.00 0.00 81 1018.4
20210723124345 23 171 11.3 14.5 0.00 0.00 0.00 81 1018.4
20210723123845 23 153 9.7 16.1 0.00 0.00 0.00 81 1018.8
20210723123344 23 130 8.0 17.7 0.00 0.00 0.00 82 1018.3
20210723122843 23 83 8.0 12.9 0.00 0.00 0.00 83 1018.6
20210723122337 23 162 6.4 17.7 0.00 0.00 0.00 83 1018.3
20210723121836 23 81 0.0 14.5 0.00 0.00 0.00 83 1018.4
20210723121334 23 102 0.0 14.5 0.00 0.00 0.00 83 1018.4
20210723120833 23 90 0.0 9.7 0.00 0.00 0.00 84 1018.2
20210723120332 23 80 6.4 20.9 0.00 0.00 0.00 83 1018.2
20210723115829 23 85 6.4 17.7 0.00 0.00 0.00 83 1018.3
20210723115327 23 90 16.1 16.1 0.00 0.00 0.00 83 1018.4
20210723114826 23 112 8.0 20.9 0.00 0.00 0.00 84 1018.3
20210723114326 23 101 8.0 12.9 0.00 0.00 0.00 84 1018.1
20210723113825 23 111 9.7 12.9 0.00 0.00 0.00 84 1018.4
20210723113320 23 114 4.8 14.5 0.00 0.00 0.00 84 1018.1
20210723112819 23 94 9.7 14.5 0.00 0.00 0.00 84 1018.1
20210723112319 23 114 0.0 12.9 0.00 0.00 0.00 83 1018.1
20210723111816 23 117 6.4 8.0 0.00 0.00 0.00 83 1018.3
20210723111316 23 102 0.0 19.3 0.00 0.00 0.00 83 1018.0
20210723110815 23 172 9.7 11.3 0.00 0.00 0.00 83 1018.1
20210723110314 23 126 4.8 12.9 0.00 0.00 0.00 83 1017.9
20210723105814 23 11 0.0 9.7 0.00 0.00 0.00 82 1018.1
20210723105312 23 160 4.8 12.9 0.00 0.00 0.00 83 1017.6
20210723104809 23 20 0.0 16.1 0.00 0.00 0.00 83 1017.6
20210723104307 23 95 6.4 19.3 0.00 0.00 0.00 82 1017.8
20210723103807 23 77 14.5 17.7 0.00 0.00 0.00 82 1018.0
20210723103306 23 130 8.0 17.7 0.00 0.00 0.00 82 1017.8
20210723102805 23 103 0.0 9.7 0.00 0.00 0.00 82 1017.8
20210723102306 23 90 0.0 12.9 0.00 0.00 0.00 83 1017.9
20210723101803 23 105 14.5 16.1 0.00 0.00 0.00 83 1017.8
20210723101302 23 95 12.9 20.9 0.00 0.00 0.00 83 1017.6
20210723100800 23 90 6.4 17.7 0.00 0.00 0.00 83 1017.6
20210723100259 23 90 14.5 20.9 0.00 0.00 0.00 82 1017.8
20210723095759 23 105 8.0 19.3 0.00 0.00 0.00 82 1017.8
20210723095257 23 139 6.4 17.7 0.00 0.00 0.00 82 1017.8
20210723094756 24 90 8.0 19.3 0.00 0.00 0.00 82 1018.0
20210723094256 23 127 0.0 19.3 0.00 0.00 0.00 82 1017.6
20210723093754 24 98 3.2 14.5 0.00 0.00 0.00 82 1017.9
20210723093252 24 114 0.0 22.5 0.00 0.00 0.00 82 1017.6
20210723092750 24 114 9.7 16.1 0.00 0.00 0.00 82 1017.6
20210723092250 24 116 0.0 16.1 0.00 0.00 0.00 81 1017.6
20210723091747 24 95 6.4 22.5 0.00 0.00 0.00 81 1017.8
20210723091246 24 135 6.4 9.7 0.00 0.00 0.00 81 1017.6
20210723090745 24 120 0.0 14.5 0.00 0.00 0.00 80 1017.9
20210723090242 24 105 0.0 11.3 0.00 0.00 0.00 80 1017.6
20210723085742 24 108 9.7 9.7 0.00 0.00 0.00 80 1017.6
20210723085241 24 117 0.0 19.3 0.00 0.00 0.00 79 1017.8
20210723084741 25 74 0.0 9.7 0.00 0.00 0.00 79 1017.6
20210723084239 25 126 4.8 12.9 0.00 0.00 0.00 79 1017.5
20210723083737 25 112 0.0 11.3 0.00 0.00 0.00 79 1017.8
20210723083236 25 86 8.0 16.1 0.00 0.00 0.00 78 1017.9
20210723082735 25 82 8.0 11.3 0.00 0.00 0.00 78 1017.8
20210723082232 25 120 4.8 14.5 0.00 0.00 0.00 78 1017.8
20210723081730 25 79 8.0 16.1 0.00 0.00 0.00 77 1018.0
20210723081227 25 103 6.4 14.5 0.00 0.00 0.00 77 1017.8
20210723080727 25 97 8.0 20.9 0.00 0.00 0.00 76 1017.6
20210723080226 25 84 11.3 14.5 0.00 0.00 0.00 76 1017.9
20210723075726 25 124 9.7 14.5 0.00 0.00 0.00 76 1017.9
20210723075224 25 113 11.3 12.9 0.00 0.00 0.00 76 1017.9
20210723074724 25 101 4.8 8.0 0.00 0.00 0.00 76 1018.1
20210723074221 25 100 6.4 16.1 0.00 0.00 0.00 75 1017.9
20210723073719 25 86 8.0 8.0 0.00 0.00 0.00 75 1017.9
20210723073217 26 90 8.0 14.5 0.00 0.00 0.00 74 1018.0
20210723072716 25 126 0.0 11.3 0.00 0.00 0.00 75 1018.1
20210723072213 25 90 8.0 12.9 0.00 0.00 0.00 76 1018.0
20210723071712 25 66 3.2 11.3 0.00 0.00 0.00 76 1018.0
20210723071209 25 97 0.0 12.9 0.00 0.00 0.00 76 1017.8
20210723070708 25 115 6.4 14.5 0.00 0.00 0.00 76 1017.8
20210723070207 25 105 0.0 14.5 0.00 0.00 0.00 76 1017.8
20210723065707 25 81 0.0 11.3 0.00 0.00 0.00 76 1017.9
20210723065205 25 106 6.4 12.9 0.00 0.00 0.00 76 1017.9
20210723064703 25 82 3.2 9.7 0.00 0.00 0.00 75 1017.8
20210723064201 26 95 0.0 16.1 0.00 0.00 0.00 75 1018.0
20210723063701 26 90 9.7 20.9 0.00 0.00 0.00 75 1017.9
20210723063159 26 90 4.8 16.1 0.00 0.00 0.00 75 1017.9
20210723062658 26 86 9.7 20.9 0.00 0.00 0.00 75 1018.0
20210723062157 26 87 20.9 25.7 0.00 0.00 0.00 74 1017.8
20210723061657 26 95 11.3 16.1 0.00 0.00 0.00 74 1018.1
20210723061154 26 96 4.8 14.5 0.00 0.00 0.00 74 1018.1
20210723060653 26 86 8.0 19.3 0.00 0.00 0.00 74 1018.0
20210723060142 26 123 11.3 11.3 0.00 0.00 0.00 74 1018.2
20210723055642 26 98 8.0 19.3 0.00 0.00 0.00 73 1018.0
20210723055142 26 90 9.7 16.1 0.00 0.00 0.00 73 1018.2
20210723054640 26 74 9.7 17.7 0.00 0.00 0.00 73 1018.2
20210723054138 26 90 6.4 14.5 0.00 0.00 0.00 73 1018.2
20210723053634 26 79 11.3 14.5 0.00 0.00 0.00 72 1018.1
20210723053129 26 93 9.7 17.7 0.00 0.00 0.00 72 1018.0
20210723052629 26 94 0.0 14.5 0.00 0.00 0.00 72 1018.1
20210723052046 26 187 11.3 20.9 0.00 0.00 0.00 71 1017.6
20210723051544 27 81 11.3 22.5 0.00 0.00 0.00 71 1018.1
20210723051043 27 94 14.5 24.1 0.00 0.00 0.00 71 1017.6
20210723050542 27 100 11.3 16.1 0.00 0.00 0.00 70 1018.2
20210723050037 27 109 16.1 20.9 0.00 0.00 0.00 70 1018.1
20210723045533 27 81 9.7 12.9 0.00 0.00 0.00 70 1018.0
20210723045031 27 90 8.0 19.3 0.00 0.00 0.00 69 1018.3
20210723044531 27 109 14.5 14.5 0.00 0.00 0.00 69 1018.1
20210723044025 27 53 0.0 16.1 0.00 0.00 0.00 68 1018.2
20210723043523 27 98 20.9 20.9 0.00 0.00 0.00 68 1018.2
20210723043023 27 71 9.7 20.9 0.00 0.00 0.00 67 1018.1
20210723042510 27 90 12.9 14.5 0.00 0.00 0.00 66 1018.1
20210723042010 28 94 8.0 19.3 0.00 0.00 0.00 66 1018.2
20210723041509 28 82 12.9 22.5 0.00 0.00 0.00 65 1018.1
20210723041008 28 95 12.9 25.7 0.00 0.00 0.00 65 1018.1
20210723040506 28 82 14.5 24.1 0.00 0.00 0.00 64 1017.9
20210723040001 28 84 14.5 16.1 0.00 0.00 0.00 64 1018.1
20210723035458 28 97 17.7 19.3 0.00 0.00 0.00 64 1018.2
20210723034957 28 79 16.1 30.6 0.00 0.00 0.00 64 1018.0
20210723034429 28 105 8.0 32.2 0.00 0.00 0.00 64 1017.8
20210723033928 28 114 8.0 14.5 0.00 0.00 0.00 63 1017.9
20210723033426 28 90 16.1 27.4 0.00 0.00 0.00 63 1017.6
20210723032925 28 56 6.4 20.9 0.00 0.00 0.00 63 1017.9
20210723032424 28 103 8.0 20.9 0.00 0.00 0.00 62 1018.0
20210723031922 28 28 9.7 27.4 0.00 0.00 0.00 62 1017.6
20210723031422 28 83 8.0 22.5 0.00 0.00 0.00 61 1017.6
20210723030919 28 99 14.5 14.5 0.00 0.00 0.00 61 1017.6
20210723030417 28 93 11.3 16.1 0.00 0.00 0.00 62 1017.5
20210723025917 29 74 9.7 19.3 0.00 0.00 0.00 61 1017.5
20210723025416 29 55 8.0 17.7 0.00 0.00 0.00 61 1017.4
20210723024914 29 90 11.3 16.1 0.00 0.00 0.00 60 1017.4
20210723024412 29 97 9.7 24.1 0.00 0.00 0.00 59 1017.4
20210723023906 29 78 8.0 16.1 0.00 0.00 0.00 59 1017.3
20210723023406 29 56 0.0 14.5 0.00 0.00 0.00 59 1017.3
20210723022905 30 94 9.7 20.9 0.00 0.00 0.00 59 1017.4
20210723022404 30 69 11.3 17.7 0.00 0.00 0.00 59 1017.3
20210723021903 30 85 11.3 16.1 0.00 0.00 0.00 59 1017.2
20210723021401 30 81 3.2 14.5 0.00 0.00 0.00 59 1017.3
20210723020900 30 78 0.0 14.5 0.00 0.00 0.00 58 1017.1
20210723020359 30 101 6.4 20.9 0.00 0.00 0.00 57 1017.1
20210723015859 30 85 6.4 20.9 0.00 0.00 0.00 56 1017.3
20210723015356 30 66 12.9 17.7 0.00 0.00 0.00 55 1017.0
20210723014856 30 98 12.9 19.3 0.00 0.00 0.00 54 1017.2
20210723014355 30 82 16.1 20.9 0.00 0.00 0.00 54 1017.2
20210723013852 30 80 12.9 14.5 0.00 0.00 0.00 54 1017.1
20210723013352 31 71 9.7 19.3 0.00 0.00 0.00 53 1016.9
20210723012851 31 81 11.3 20.9 0.00 0.00 0.00 53 1017.1
20210723012349 31 78 12.9 24.1 0.00 0.00 0.00 52 1016.9
20210723011848 31 90 4.8 27.4 0.00 0.00 0.00 52 1017.1
20210723011347 31 54 4.8 22.5 0.00 0.00 0.00 51 1017.0
20210723010845 31 90 9.7 30.6 0.00 0.00 0.00 51 1017.0
20210723010342 31 63 17.7 27.4 0.00 0.00 0.00 51 1017.1
20210723005839 31 72 20.9 35.4 0.00 0.00 0.00 50 1017.0
20210723005337 31 57 12.9 22.5 0.00 0.00 0.00 50 1016.8
20210723004835 31 114 4.8 19.3 0.00 0.00 0.00 50 1016.7
20210723004335 31 124 6.4 27.4 0.00 0.00 0.00 49 1016.9
20210723003835 31 90 4.8 22.5 0.00 0.00 0.00 48 1016.6
20210723003332 32 94 0.0 29.0 0.00 0.00 0.00 47 1016.6
20210723002833 32 75 14.5 30.6 0.00 0.00 0.00 47 1016.6
20210723002332 32 103 9.7 17.7 0.00 0.00 0.00 46 1016.5
20210723001831 32 35 12.9 16.1 0.00 0.00 0.00 46 1016.6
20210723001328 32 116 8.0 17.7 0.00 0.00 0.00 46 1016.4
20210723000827 32 74 14.5 22.5 0.00 0.00 0.00 45 1016.6
20210723000326 32 85 30.6 33.8 0.00 0.00 0.00 45 1016.6
20210722235824 32 92 16.1 30.6 0.00 0.00 0.00 45 1016.6
20210722235323 32 127 11.3 25.7 0.00 0.00 0.00 44 1016.6
20210722234822 32 60 8.0 24.1 0.00 0.00 0.00 44 1016.6
20210722234321 32 24 8.0 19.3 0.00 0.00 0.00 44 1016.7
20210722233820 32 90 0.0 27.4 0.00 0.00 0.00 44 1016.8
20210722233318 33 70 22.5 22.5 0.00 0.00 0.00 43 1016.9
20210722232815 32 148 4.8 20.9 0.00 0.00 0.00 44 1016.9
20210722232315 32 115 20.9 30.6 0.00 0.00 0.00 44 1016.9
20210722231813 32 100 12.9 22.5 0.00 0.00 0.00 43 1016.7
20210722231311 33 144 8.0 25.7 0.00 0.00 0.00 43 1016.9
20210722230809 33 61 8.0 19.3 0.00 0.00 0.00 43 1016.8
20210722230308 33 101 8.0 19.3 0.00 0.00 0.00 43 1016.8
20210722225807 33 90 8.0 11.3 0.00 0.00 0.00 42 1016.9
20210722225306 33 87 9.7 17.7 0.00 0.00 0.00 43 1017.0
20210722224804 33 120 8.0 22.5 0.00 0.00 0.00 42 1017.1
20210722224301 33 80 6.4 9.7 0.00 0.00 0.00 42 1017.0
20210722223800 33 102 16.1 20.9 0.00 0.00 0.00 42 1016.9
20210722223259 33 83 8.0 11.3 0.00 0.00 0.00 42 1017.3
20210722222758 33 109 17.7 25.7 0.00 0.00 0.00 42 1017.2
20210722222256 33 69 9.7 11.3 0.00 0.00 0.00 43 1017.4
20210722221755 33 74 9.7 20.9 0.00 0.00 0.00 42 1017.2
20210722221253 33 94 8.0 22.5 0.00 0.00 0.00 41 1017.3
20210722220753 33 152 6.4 22.5 0.00 0.00 0.00 41 1017.3
20210722220251 33 70 12.9 16.1 0.00 0.00 0.00 42 1017.4
20210722215751 33 143 6.4 11.3 0.00 0.00 0.00 42 1017.6
20210722215248 33 83 9.7 29.0 0.00 0.00 0.00 43 1017.8
20210722214747 33 165 11.3 20.9 0.00 0.00 0.00 40 1017.8
20210722214246 33 339 0.0 16.1 0.00 0.00 0.00 43 1017.6
20210722213746 33 137 17.7 20.9 0.00 0.00 0.00 42 1017.8
20210722213244 32 62 16.1 19.3 0.00 0.00 0.00 41 1017.9
20210722212743 32 93 0.0 22.5 0.00 0.00 0.00 42 1018.0
20210722212242 33 94 8.0 16.1 0.00 0.00 0.00 42 1018.1
20210722211741 33 118 11.3 12.9 0.00 0.00 0.00 43 1017.8
20210722211239 33 150 11.3 19.3 0.00 0.00 0.00 42 1018.1
20210722210738 32 90 4.8 32.2 0.00 0.00 0.00 43 1018.0
20210722210237 33 78 8.0 14.5 0.00 0.00 0.00 41 1018.3
20210722205737 32 164 17.7 19.3 0.00 0.00 0.00 42 1018.3
20210722205235 32 205 12.9 19.3 0.00 0.00 0.00 44 1018.4
20210722204734 32 81 6.4 20.9 0.00 0.00 0.00 44 1018.4
20210722204232 32 81 16.1 35.4 0.00 0.00 0.00 45 1018.7
20210722203731 32 106 0.0 16.1 0.00 0.00 0.00 46 1018.5
20210722203227 33 55 19.3 22.5 0.00 0.00 0.00 44 1018.6
20210722202727 33 196 16.1 16.1 0.00 0.00 0.00 44 1018.9
20210722202227 32 90 4.8 20.9 0.00 0.00 0.00 46 1018.7
20210722201726 33 90 0.0 22.5 0.00 0.00 0.00 44 1018.9
20210722201221 32 155 14.5 16.1 0.00 0.00 0.00 47 1019.0
20210722200719 31 79 6.4 27.4 0.00 0.00 0.00 44 1018.8
20210722200217 32 71 16.1 25.7 0.00 0.00 0.00 46 1018.9
20210722195717 32 174 0.0 9.7 0.00 0.00 0.00 48 1018.9
20210722195215 32 62 20.9 20.9 0.00 0.00 0.00 46 1018.9
20210722194713 32 66 19.3 32.2 0.00 0.00 0.00 47 1019.0
20210722194209 31 83 0.0 17.7 0.00 0.00 0.00 49 1019.0
20210722193709 32 154 0.0 9.7 0.00 0.00 0.00 48 1019.0
20210722193208 32 189 0.0 20.9 0.00 0.00 0.00 48 1019.3
20210722192707 32 33 20.9 32.2 0.00 0.00 0.00 47 1019.2
20210722192207 31 105 12.9 33.8 0.00 0.00 0.00 46 1019.4
20210722191705 32 165 6.4 16.1 0.00 0.00 0.00 49 1019.2
20210722191204 32 68 24.1 24.1 0.00 0.00 0.00 47 1019.3
20210722190702 32 86 8.0 16.1 0.00 0.00 0.00 50 1019.3
20210722190200 31 73 24.1 32.2 0.00 0.00 0.00 50 1019.3
20210722185700 31 115 14.5 20.9 0.00 0.00 0.00 49 1019.4
20210722185158 31 69 14.5 32.2 0.00 0.00 0.00 50 1019.3
20210722184657 31 71 11.3 11.3 0.00 0.00 0.00 51 1019.4
20210722184156 31 77 6.4 17.7 0.00 0.00 0.00 49 1019.7
20210722183655 31 74 19.3 27.4 0.00 0.00 0.00 48 1019.5
20210722183152 31 111 4.8 32.2 0.00 0.00 0.00 50 1019.4
20210722182652 31 113 19.3 20.9 0.00 0.00 0.00 51 1019.6
20210722182146 31 59 12.9 16.1 0.00 0.00 0.00 51 1019.9
20210722181644 30 77 8.0 14.5 0.00 0.00 0.00 53 1019.7
20210722181142 30 55 0.0 14.5 0.00 0.00 0.00 52 1019.9
20210722180640 31 40 9.7 11.3 0.00 0.00 0.00 52 1020.0
20210722180140 30 161 12.9 12.9 0.00 0.00 0.00 54 1019.7
20210722175638 31 234 4.8 27.4 0.00 0.00 0.00 54 1020.0
20210722175136 31 152 8.0 19.3 0.00 0.00 0.00 54 1020.1
20210722174634 30 105 0.0 20.9 0.00 0.00 0.00 54 1020.2
20210722174132 30 145 4.8 12.9 0.00 0.00 0.00 54 1020.1
20210722173630 31 157 0.0 14.5 0.00 0.00 0.00 54 1020.2
20210722173129 31 127 6.4 33.8 0.00 0.00 0.00 54 1020.2
20210722172628 31 135 8.0 20.9 0.00 0.00 0.00 52 1020.1
20210722172128 30 73 14.5 22.5 0.00 0.00 0.00 53 1020.1
20210722171627 30 129 8.0 20.9 0.00 0.00 0.00 53 1020.3
20210722171123 30 119 14.5 14.5 0.00 0.00 0.00 56 1020.5
20210722170623 30 114 8.0 14.5 0.00 0.00 0.00 55 1020.4
20210722170122 30 107 14.5 25.7 0.00 0.00 0.00 53 1020.3
20210722165620 30 164 4.8 17.7 0.00 0.00 0.00 52 1020.4
20210722165117 31 180 6.4 9.7 0.00 0.00 0.00 56 1020.4
20210722164617 30 23 0.0 8.0 0.00 0.00 0.00 56 1020.4
20210722164115 30 204 17.7 19.3 0.00 0.00 0.00 58 1020.3
20210722163613 30 90 4.8 19.3 0.00 0.00 0.00 59 1020.5
20210722163113 30 146 0.0 16.1 0.00 0.00 0.00 58 1020.5